Hourly Data Report for July 14, 2017

TORONTO CITY
ONTARIO

43°40'00.000" N
79°24'00.000" W
112.50 m
6158355
71508
XTO

Download Data

Hourly Data (July 2017)
Hourly Data Report for July 14, 2017
TIME
LST
Temp Definition
°C
Dew Point Definition
°C
Rel Hum Definition
%
Precip. Amount Definition
mm

Wind Dir Definition
10's deg

Wind Spd Definition
km/h
Visibility Definition
km
Stn Press Definition
kPa
Hmdx Definition


Wind Chill Definition


Weather Definition


00:00 18.3 15.5 84 0.0 LegendMM LegendMM   100.18     LegendNANA
01:00 17.4 15.6 89 10.8 LegendMM LegendMM   100.16     LegendNANA
02:00 17.4 15.6 89 0.2 LegendMM LegendMM   100.10     LegendNANA
03:00 17.7 15.7 88 0.0 LegendMM LegendMM   100.05     LegendNANA
04:00 18.1 15.8 86 0.0 LegendMM LegendMM   100.07     LegendNANA
05:00 17.9 15.9 88 0.0 LegendMM LegendMM   100.07     LegendNANA
06:00 18.2 16.2 88 0.0 LegendMM LegendMM   100.09     LegendNANA
07:00 18.7 16.4 87 0.0 LegendMM LegendMM   100.10     LegendNANA
08:00 18.9 16.6 87 0.0 LegendMM LegendMM   100.09     LegendNANA
09:00 19.7 17.4 87 0.0 LegendMM LegendMM   100.08     LegendNANA
10:00 20.6 17.5 83 0.0 LegendMM LegendMM   100.09 26   LegendNANA
11:00 20.0 17.4 85 0.0 LegendMM LegendMM   100.10 26   LegendNANA
12:00 20.9 17.8 83 0.0 LegendMM LegendMM   100.10 27   LegendNANA
13:00 22.9 17.9 73 0.0 LegendMM LegendMM   100.07 29   LegendNANA
14:00 24.2 18.5 71 0.0 LegendMM LegendMM   100.02 31   LegendNANA
15:00 23.8 17.0 65 0.0 LegendMM LegendMM   99.98 29   LegendNANA
16:00 24.2 17.5 66 0.0 LegendMM LegendMM   99.98 30   LegendNANA
17:00 25.5 15.6 54 0.0 LegendMM LegendMM   99.99 30   LegendNANA
18:00 24.3 14.5 54 0.0 LegendMM LegendMM   100.00 28   LegendNANA
19:00 22.8 14.4 59 0.0 LegendMM LegendMM   100.06 26   LegendNANA
20:00 21.3 14.4 65 0.0 LegendMM LegendMM   100.07 25   LegendNANA
21:00 21.2 14.6 66 0.0 LegendMM LegendMM   100.11 25   LegendNANA
22:00 20.4 13.9 66 0.0 LegendMM LegendMM   100.11     LegendNANA
23:00 19.6 14.1 71 0.0 LegendMM LegendMM   100.12     LegendNANA

Notes on Data Quality.

Legend

  • E = Estimated
  • M = Missing
  • NA = Not Available*
  • [empty] = Indicates an unobserved value
Date modified: